Provincetown, Massachusetts, United States (02657)
Lat: 42.06N, Lon: 70.18W
Wx Zone: MAZ022
Local Info
Past Weather Observations for Today

NOTE: This archive is for the closest National Weather Service station to Provincetown. Information may differ from the station used for current weather conditions.

Click here for Long-term Archive

Time Weather Temperature Dewpoint Humidity Pressure Winds Precip Visibility
20:56
Mostly Cloudy
48°F / 9°C 37°F / 3°C 66% 30.12 in
(1020 mb)
SW 24.2 mph
(SW 39 kph)
- 10SM
19:56
Overcast
48°F / 9°C 37°F / 3°C 66% 30.12 in
(1020 mb)
SW 21.9 mph
(SW 35 kph)
- 10SM
18:56
Overcast
46°F / 8°C 36°F / 2°C 66% 30.15 in
(1021 mb)
SW 20.7 mph
(SW 33 kph)
- 10SM
17:56
Overcast
45°F / 7°C 34°F / 1°C 66% 30.18 in
(1022 mb)
SW 21.9 mph
(SW 35 kph)
- 10SM
16:56
Clear
43°F / 6°C 32°F / 0°C 66% 30.18 in
(1022 mb)
SSW 23 mph
(SSW 37 kph)
- 10SM
15:56
Clear
43°F / 6°C 30°F / -1°C 61% 30.18 in
(1022 mb)
SW 25.3 mph
(SW 41 kph)
- 10SM
14:56
Clear
45°F / 7°C 28°F / -2°C 53% 30.21 in
(1023 mb)
SW 24.2 mph
(SW 39 kph)
- 10SM
13:56
Clear
45°F / 7°C 28°F / -2°C 53% 30.21 in
(1023 mb)
SW 27.6 mph
(SW 44 kph)
- 10SM
12:56
Clear
45°F / 7°C 28°F / -2°C 53% 30.24 in
(1024 mb)
SW 23 mph
(SW 37 kph)
- 10SM
11:56
Clear
45°F / 7°C 21°F / -6°C 39% 30.3 in
(1026 mb)
SW 23 mph
(SW 37 kph)
- 10SM
10:56
Clear
39°F / 4°C 23°F / -5°C 52% 30.36 in
(1028 mb)
SW 17.3 mph
(SW 28 kph)
- 10SM
09:56
Clear
37°F / 3°C 12°F / -11°C 35% 30.39 in
(1029 mb)
SSW 16.1 mph
(SSW 26 kph)
- 10SM
08:56
Clear
34°F / 1°C 14°F / -10°C 44% 30.42 in
(1030 mb)
SSW 10.4 mph
(SSW 17 kph)
- 10SM
07:56
Clear
30°F / -1°C 14°F / -10°C 51% 30.42 in
(1030 mb)
SSW 8.1 mph
(SSW 13 kph)
- 10SM
06:56
Clear
27°F / -3°C 14°F / -10°C 59% 30.42 in
(1030 mb)
SSW 6.9 mph
(SSW 11 kph)
- 10SM
05:56
Clear
25°F / -4°C 14°F / -10°C 63% 30.42 in
(1030 mb)
SSW 4.6 mph
(SSW 7 kph)
- 10SM
04:56
Clear
27°F / -3°C 12°F / -11°C 54% 30.42 in
(1030 mb)
SSW 5.8 mph
(SSW 9 kph)
- 10SM
03:56
Clear
27°F / -3°C 12°F / -11°C 54% 30.42 in
(1030 mb)
W 9.2 mph
(W 15 kph)
- 10SM
02:56
Clear
27°F / -3°C 10°F / -12°C 50% 30.42 in
(1030 mb)
W 6.9 mph
(W 11 kph)
- 10SM
01:56
Clear
27°F / -3°C 9°F / -13°C 46% 30.42 in
(1030 mb)
W 8.1 mph
(W 13 kph)
- 10SM
00:56
Clear
27°F / -3°C 7°F / -14°C 43% 30.42 in
(1030 mb)
W 8.1 mph
(W 13 kph)
- 10SM
Time Weather Temperature Dewpoint Humidity Pressure Winds Precip Visibility


Weather for websites

WeatherForYou.com, LLC is not responsible for any damages or problems caused by this service. Current weather conditions are obtained from the closest station including government and personal stations which may have varying degrees of accuracy. Weather forecasts are derived from the NOAA NDFD. Like all things, this site belongs to Jesus Christ... He just trusts me to maintain it. If you have any questions or comments email webmaster@weatherforyou.com

Copyright © 2014, WeatherForYou.com LLC. All rights reserved.